User: anonymous   Login
Location: Asheville, NC
(35.6000°N, 82.5500°W)
Time: 04:44:43
(UTC-05:00)
Language:

nSIGHT-1 - Orbit

View from above orbital plane
View from above orbital plane
View from above satellite
View from above satellite

Ground track
Ground track

The orbit data is extracted from the following two-line orbital elements,

1 42726U 98067MF  18022.54444421  .00009307  00000-0  12306-3 0  9996
2 42726  51.6400  20.1290 0006421  51.9304 308.2267 15.59104334 37663
Epoch (UTC): 22 January 2018 13:03:59
Eccentricity: 0.0006421
inclination: 51.6400°
perigee height: 386 km
apogee height: 394 km
right ascension of ascending node: 20.1290°
argument of perigee: 51.9304°
revolutions per day: 15.59104334
mean anomaly at epoch: 308.2267°
orbit number at epoch: 3766

The dashed part of the orbit path shows where the satellite is in the earth's shadow,  

DLR